| time (UTC) | temp F | wind direction | speed knots | gust knots | rain 1hr in | rain 24hr in | rain mn in | humidity % | barometer mb |
| 20260506044111 | 39 | 328 | 0.9 | 2.6 | 0.00 | 0.00 | 0.00 | 89 | 1014.3 |
| 20260506043832 | 39 | 338 | 0.9 | 4.3 | 0.00 | 0.00 | 0.00 | 88 | 1014.3 |
| 20260506043333 | 39 | 344 | 0.9 | 4.3 | 0.00 | 0.00 | 0.00 | 88 | 1014.3 |
| 20260506042611 | 39 | 294 | 0.9 | 3.5 | 0.00 | 0.00 | 0.00 | 88 | 1014.3 |
| 20260506042111 | 39 | 343 | 0.9 | 3.5 | 0.00 | 0.00 | 0.00 | 88 | 1014.3 |
| 20260506041557 | 39 | 350 | 0.9 | 3.5 | 0.00 | 0.00 | 0.00 | 88 | 1014.3 |
| 20260506041057 | 39 | 358 | 0.9 | 2.6 | 0.00 | 0.00 | 0.00 | 88 | 1014.2 |
| 20260506040542 | 40 | 298 | 0.9 | 3.5 | 0.00 | 0.00 | 0.00 | 87 | 1014.2 |
| 20260506040043 | 40 | 0 | 0.9 | 3.5 | 0.00 | 0.00 | 0.00 | 87 | 1014.2 |
| 20260506035525 | 40 | 355 | 0.0 | 1.7 | 0.00 | 0.00 | 0.00 | 87 | 1014.2 |
| 20260506035026 | 40 | 0 | 0.9 | 2.6 | 0.00 | 0.00 | 0.00 | 87 | 1014.2 |
| 20260506034525 | 40 | 0 | 1.7 | 3.5 | 0.00 | 0.00 | 0.00 | 87 | 1014.3 |
| 20260506034027 | 41 | 338 | 1.7 | 3.5 | 0.00 | 0.00 | 0.00 | 86 | 1014.3 |
| 20260506033753 | 41 | 303 | 0.9 | 3.5 | 0.00 | 0.00 | 0.00 | 86 | 1014.3 |
| 20260506033026 | 41 | 5 | 1.7 | 4.3 | 0.00 | 0.00 | 0.00 | 86 | 1014.3 |
| 20260506032525 | 41 | 21 | 1.7 | 6.1 | 0.00 | 0.00 | 0.00 | 86 | 1014.3 |
| 20260506032022 | 42 | 352 | 1.7 | 6.1 | 0.00 | 0.00 | 0.00 | 86 | 1014.3 |
| 20260506031516 | 42 | 18 | 2.6 | 7.0 | 0.00 | 0.00 | 0.00 | 86 | 1014.4 |
| 20260506031016 | 42 | 332 | 2.6 | 7.0 | 0.00 | 0.00 | 0.00 | 86 | 1014.4 |
| 20260506030512 | 42 | 2 | 1.7 | 4.3 | 0.00 | 0.00 | 0.00 | 85 | 1014.4 |
| 20260506030013 | 42 | 338 | 1.7 | 2.6 | 0.00 | 0.00 | 0.00 | 85 | 1014.4 |
| 20260506025502 | 42 | 308 | 1.7 | 3.5 | 0.00 | 0.00 | 0.00 | 85 | 1014.4 |
| 20260506024943 | 43 | 359 | 1.7 | 5.2 | 0.00 | 0.00 | 0.00 | 85 | 1014.4 |
| 20260506024429 | 43 | 3 | 2.6 | 5.2 | 0.00 | 0.00 | 0.00 | 85 | 1014.4 |
| 20260506023927 | 43 | 328 | 1.7 | 4.3 | 0.00 | 0.00 | 0.00 | 85 | 1014.4 |
| 20260506023427 | 43 | 25 | 1.7 | 5.2 | 0.00 | 0.00 | 0.00 | 85 | 1014.4 |
| 20260506022927 | 43 | 339 | 1.7 | 5.2 | 0.00 | 0.00 | 0.00 | 85 | 1014.4 |
| 20260506022426 | 43 | 14 | 1.7 | 4.3 | 0.00 | 0.00 | 0.00 | 85 | 1014.4 |
| 20260506021927 | 43 | 358 | 1.7 | 4.3 | 0.00 | 0.00 | 0.00 | 85 | 1014.4 |
| 20260506021431 | 43 | 350 | 1.7 | 4.3 | 0.00 | 0.00 | 0.00 | 85 | 1014.4 |
| 20260506020927 | 43 | 316 | 1.7 | 4.3 | 0.00 | 0.00 | 0.00 | 85 | 1014.4 |
| 20260506020427 | 43 | 303 | 1.7 | 4.3 | 0.00 | 0.00 | 0.00 | 85 | 1014.5 |
| 20260506015927 | 43 | 32 | 1.7 | 5.2 | 0.00 | 0.00 | 0.00 | 85 | 1014.5 |
| 20260506015425 | 43 | 336 | 2.6 | 5.2 | 0.00 | 0.00 | 0.00 | 85 | 1014.5 |
| 20260506014926 | 43 | 357 | 1.7 | 5.2 | 0.00 | 0.00 | 0.00 | 84 | 1014.6 |
| 20260506014432 | 43 | 342 | 1.7 | 3.5 | 0.00 | 0.00 | 0.00 | 84 | 1014.6 |
| 20260506013928 | 43 | 35 | 1.7 | 4.3 | 0.00 | 0.00 | 0.00 | 84 | 1014.5 |
| 20260506013417 | 44 | 326 | 1.7 | 4.3 | 0.00 | 0.00 | 0.00 | 84 | 1014.6 |
| 20260506012917 | 44 | 328 | 1.7 | 7.0 | 0.00 | 0.00 | 0.00 | 84 | 1014.6 |
| 20260506012416 | 44 | 353 | 1.7 | 7.0 | 0.00 | 0.00 | 0.00 | 84 | 1014.6 |
| 20260506011914 | 44 | 314 | 1.7 | 5.2 | 0.00 | 0.00 | 0.00 | 84 | 1014.7 |
| 20260506011404 | 44 | 318 | 2.6 | 6.1 | 0.00 | 0.00 | 0.00 | 84 | 1014.7 |
| 20260506010906 | 44 | 347 | 2.6 | 6.1 | 0.00 | 0.00 | 0.00 | 84 | 1014.7 |
| 20260506010405 | 44 | 339 | 1.7 | 5.2 | 0.00 | 0.00 | 0.00 | 83 | 1014.7 |
| 20260506005905 | 44 | 0 | 1.7 | 5.2 | 0.00 | 0.00 | 0.00 | 83 | 1014.7 |
| 20260506005400 | 44 | 334 | 1.7 | 5.2 | 0.00 | 0.00 | 0.00 | 83 | 1014.7 |
| 20260506004859 | 44 | 348 | 2.6 | 7.8 | 0.00 | 0.00 | 0.00 | 83 | 1014.7 |
| 20260506004354 | 44 | 328 | 2.6 | 7.8 | 0.00 | 0.00 | 0.00 | 83 | 1014.8 |
| 20260506003848 | 44 | 357 | 1.7 | 6.1 | 0.00 | 0.00 | 0.00 | 82 | 1014.8 |
| 20260506003345 | 44 | 17 | 1.7 | 3.5 | 0.00 | 0.00 | 0.00 | 82 | 1014.9 |
| 20260506002844 | 44 | 339 | 1.7 | 9.6 | 0.00 | 0.00 | 0.00 | 82 | 1014.9 |
| 20260506002555 | 44 | 35 | 2.6 | 9.6 | 0.00 | 0.00 | 0.00 | 82 | 1014.9 |
| 20260506001831 | 44 | 332 | 1.7 | 7.0 | 0.00 | 0.00 | 0.00 | 81 | 1015.0 |
| 20260506000828 | 44 | 9 | 2.6 | 6.1 | 0.00 | 0.00 | 0.00 | 81 | 1014.9 |
| 20260505235829 | 45 | 344 | 2.6 | 4.3 | 0.00 | 0.00 | 0.00 | 80 | 1014.9 |
| 20260505234829 | 45 | 298 | 2.6 | 5.2 | 0.00 | 0.00 | 0.00 | 80 | 1015.0 |
| 20260505233833 | 45 | 358 | 1.7 | 4.3 | 0.00 | 0.00 | 0.00 | 79 | 1015.0 |
| 20260505233330 | 45 | 24 | 1.7 | 4.3 | 0.00 | 0.00 | 0.00 | 79 | 1015.0 |
| 20260505232830 | 45 | 352 | 1.7 | 5.2 | 0.00 | 0.00 | 0.00 | 78 | 1015.0 |
| 20260505232325 | 45 | 342 | 1.7 | 5.2 | 0.00 | 0.00 | 0.00 | 78 | 1015.1 |
| 20260505231824 | 45 | 359 | 2.6 | 6.1 | 0.00 | 0.00 | 0.00 | 78 | 1015.1 |
| 20260505231324 | 45 | 352 | 2.6 | 6.1 | 0.00 | 0.00 | 0.00 | 77 | 1015.1 |
| 20260505230826 | 45 | 343 | 1.7 | 7.8 | 0.00 | 0.00 | 0.00 | 77 | 1015.2 |
| 20260505230325 | 45 | 2 | 1.7 | 7.8 | 0.00 | 0.00 | 0.00 | 77 | 1015.2 |
| 20260505225825 | 46 | 15 | 1.7 | 7.0 | 0.00 | 0.00 | 0.00 | 77 | 1015.2 |
| 20260505225324 | 46 | 27 | 1.7 | 5.2 | 0.00 | 0.00 | 0.00 | 77 | 1015.2 |
| 20260505224823 | 46 | 332 | 1.7 | 5.2 | 0.00 | 0.00 | 0.00 | 77 | 1015.1 |
| 20260505224322 | 46 | 354 | 1.7 | 5.2 | 0.00 | 0.00 | 0.00 | 77 | 1015.2 |
| 20260505224044 | 46 | 345 | 2.6 | 6.1 | 0.00 | 0.00 | 0.00 | 77 | 1015.2 |
| 20260505223544 | 46 | 57 | 2.6 | 7.8 | 0.00 | 0.00 | 0.00 | 76 | 1015.2 |
| 20260505223043 | 46 | 314 | 2.6 | 7.8 | 0.00 | 0.00 | 0.00 | 76 | 1015.1 |
| 20260505222317 | 46 | 106 | 2.6 | 6.1 | 0.00 | 0.00 | 0.00 | 76 | 1015.2 |
| 20260505221818 | 46 | 62 | 2.6 | 6.1 | 0.00 | 0.00 | 0.00 | 76 | 1015.2 |
| 20260505221317 | 46 | 0 | 3.5 | 7.0 | 0.00 | 0.00 | 0.00 | 76 | 1015.1 |
| 20260505220817 | 46 | 67 | 3.5 | 7.0 | 0.00 | 0.00 | 0.00 | 76 | 1015.1 |
| 20260505220317 | 46 | 47 | 2.6 | 7.0 | 0.00 | 0.00 | 0.00 | 76 | 1015.2 |
| 20260505215814 | 46 | 350 | 2.6 | 7.0 | 0.00 | 0.00 | 0.00 | 76 | 1015.2 |
| 20260505215312 | 46 | 6 | 2.6 | 7.8 | 0.00 | 0.00 | 0.00 | 77 | 1015.3 |
| 20260505214812 | 47 | 59 | 2.6 | 7.8 | 0.00 | 0.00 | 0.00 | 77 | 1015.3 |
| 20260505214311 | 47 | 57 | 1.7 | 6.1 | 0.00 | 0.00 | 0.00 | 78 | 1015.3 |
| 20260505213808 | 47 | 14 | 1.7 | 5.2 | 0.00 | 0.00 | 0.00 | 78 | 1015.3 |
| 20260505213308 | 47 | 14 | 1.7 | 6.1 | 0.00 | 0.00 | 0.00 | 78 | 1015.3 |
| 20260505212807 | 47 | 347 | 2.6 | 6.1 | 0.00 | 0.00 | 0.00 | 78 | 1015.3 |
| 20260505212308 | 47 | 96 | 2.6 | 7.0 | 0.00 | 0.00 | 0.00 | 78 | 1015.3 |
| 20260505211808 | 47 | 21 | 2.6 | 7.0 | 0.00 | 0.00 | 0.00 | 79 | 1015.3 |
| 20260505211308 | 47 | 120 | 2.6 | 7.0 | 0.00 | 0.00 | 0.00 | 79 | 1015.3 |
| 20260505210809 | 47 | 44 | 2.6 | 7.0 | 0.00 | 0.00 | 0.00 | 79 | 1015.2 |
| 20260505210308 | 47 | 128 | 1.7 | 7.0 | 0.00 | 0.00 | 0.00 | 79 | 1015.2 |
| 20260505205808 | 47 | 327 | 1.7 | 7.8 | 0.00 | 0.00 | 0.00 | 79 | 1015.2 |
| 20260505204807 | 48 | 7 | 2.6 | 7.8 | 0.00 | 0.00 | 0.00 | 79 | 1015.1 |
| 20260505203802 | 48 | 1 | 2.6 | 7.8 | 0.00 | 0.00 | 0.00 | 79 | 1015.1 |
| 20260505202802 | 48 | 355 | 2.6 | 8.7 | 0.00 | 0.00 | 0.00 | 78 | 1015.0 |
| 20260505201803 | 48 | 4 | 2.6 | 7.0 | 0.00 | 0.00 | 0.00 | 78 | 1014.9 |
| 20260505201304 | 48 | 24 | 2.6 | 6.1 | 0.00 | 0.00 | 0.00 | 78 | 1014.9 |
| 20260505200803 | 49 | 28 | 2.6 | 7.0 | 0.00 | 0.00 | 0.00 | 78 | 1014.8 |
| 20260505200306 | 49 | 26 | 2.6 | 7.8 | 0.00 | 0.00 | 0.00 | 78 | 1014.8 |
| 20260505195804 | 49 | 102 | 2.6 | 7.8 | 0.00 | 0.00 | 0.00 | 78 | 1014.7 |
| 20260505195304 | 49 | 39 | 2.6 | 7.0 | 0.00 | 0.00 | 0.00 | 78 | 1014.6 |
| 20260505194802 | 49 | 27 | 1.7 | 5.2 | 0.00 | 0.00 | 0.00 | 78 | 1014.6 |
| 20260505194301 | 49 | 30 | 1.7 | 5.2 | 0.00 | 0.00 | 0.00 | 78 | 1014.5 |
| 20260505193802 | 49 | 90 | 1.7 | 5.2 | 0.00 | 0.00 | 0.00 | 78 | 1014.5 |
| 20260505193258 | 50 | 70 | 1.7 | 4.3 | 0.00 | 0.00 | 0.00 | 78 | 1014.5 |
| 20260505192757 | 50 | 49 | 1.7 | 6.1 | 0.00 | 0.00 | 0.00 | 78 | 1014.4 |
| 20260505192258 | 50 | 0 | 2.6 | 6.1 | 0.00 | 0.00 | 0.00 | 78 | 1014.3 |
| 20260505191757 | 50 | 0 | 1.7 | 5.2 | 0.00 | 0.00 | 0.00 | 78 | 1014.2 |
| 20260505191258 | 50 | 355 | 1.7 | 5.2 | 0.00 | 0.00 | 0.00 | 78 | 1014.3 |
| 20260505190758 | 50 | 0 | 1.7 | 7.0 | 0.00 | 0.00 | 0.00 | 78 | 1014.3 |
| 20260505190258 | 50 | 346 | 2.6 | 7.0 | 0.00 | 0.00 | 0.00 | 78 | 1014.2 |
| 20260505185756 | 50 | 342 | 2.6 | 7.0 | 0.00 | 0.00 | 0.00 | 78 | 1014.2 |
| 20260505184257 | 51 | 344 | 2.6 | 6.1 | 0.00 | 0.00 | 0.00 | 78 | 1014.0 |
| 20260505183257 | 51 | 328 | 1.7 | 5.2 | 0.00 | 0.00 | 0.00 | 78 | 1014.0 |
| 20260505182257 | 51 | 359 | 2.6 | 7.0 | 0.00 | 0.00 | 0.00 | 78 | 1013.9 |
| 20260505181257 | 51 | 348 | 3.5 | 9.6 | 0.00 | 0.00 | 0.00 | 77 | 1013.9 |
| 20260505180758 | 51 | 33 | 2.6 | 6.1 | 0.00 | 0.00 | 0.00 | 77 | 1013.9 |
| 20260505180253 | 51 | 1 | 2.6 | 7.0 | 0.00 | 0.00 | 0.00 | 77 | 1013.9 |
| 20260505175753 | 51 | 0 | 2.6 | 7.0 | 0.00 | 0.00 | 0.00 | 77 | 1013.9 |
| 20260505175252 | 52 | 246 | 2.6 | 7.0 | 0.00 | 0.00 | 0.00 | 77 | 1013.9 |
| 20260505174754 | 52 | 1 | 2.6 | 7.8 | 0.00 | 0.00 | 0.00 | 76 | 1013.8 |
| 20260505174252 | 52 | 49 | 3.5 | 7.8 | 0.00 | 0.00 | 0.00 | 76 | 1013.8 |
| 20260505173752 | 52 | 307 | 2.6 | 7.0 | 0.00 | 0.00 | 0.00 | 75 | 1013.6 |
| 20260505173252 | 52 | 349 | 2.6 | 7.0 | 0.00 | 0.00 | 0.00 | 75 | 1013.8 |
| 20260505172751 | 52 | 0 | 2.6 | 8.7 | 0.00 | 0.00 | 0.00 | 75 | 1013.6 |
| 20260505171752 | 53 | 0 | 3.5 | 7.8 | 0.00 | 0.00 | 0.00 | 74 | 1013.8 |
| 20260505171252 | 53 | 70 | 3.5 | 7.8 | 0.00 | 0.00 | 0.00 | 74 | 1013.8 |
| 20260505170752 | 53 | 347 | 3.5 | 7.8 | 0.00 | 0.00 | 0.00 | 74 | 1013.8 |
| 20260505170253 | 54 | 16 | 3.5 | 7.8 | 0.00 | 0.00 | 0.00 | 73 | 1013.8 |
| 20260505165749 | 54 | 30 | 3.5 | 7.8 | 0.00 | 0.00 | 0.00 | 72 | 1013.8 |
| 20260505165515 | 55 | 347 | 2.6 | 7.0 | 0.00 | 0.00 | 0.00 | 69 | 1013.5 |
| 20260505164247 | 56 | 312 | 1.7 | 7.0 | 0.00 | 0.00 | 0.00 | 61 | 1013.4 |
| 20260505162747 | 56 | 0 | 1.7 | 6.1 | 0.00 | 0.00 | 0.00 | 60 | 1013.4 |
| 20260505161748 | 56 | 320 | 1.7 | 7.8 | 0.00 | 0.00 | 0.00 | 58 | 1013.4 |
| 20260505160743 | 56 | 355 | 2.6 | 5.2 | 0.00 | 0.00 | 0.00 | 58 | 1013.4 |
| 20260505160242 | 56 | 355 | 2.6 | 7.8 | 0.00 | 0.00 | 0.00 | 59 | 1013.4 |
| 20260505153242 | 56 | 358 | 2.6 | 6.1 | 0.00 | 0.00 | 0.00 | 60 | 1013.4 |
| 20260505152743 | 56 | 347 | 2.6 | 7.8 | 0.00 | 0.00 | 0.00 | 60 | 1013.4 |
| 20260505152242 | 56 | 323 | 2.6 | 7.8 | 0.00 | 0.00 | 0.00 | 60 | 1013.3 |
| 20260505151742 | 56 | 336 | 2.6 | 7.8 | 0.00 | 0.00 | 0.00 | 60 | 1013.4 |
| 20260505151245 | 56 | 27 | 2.6 | 7.8 | 0.00 | 0.00 | 0.00 | 60 | 1013.4 |
| 20260505150743 | 56 | 349 | 1.7 | 6.1 | 0.00 | 0.00 | 0.00 | 60 | 1013.4 |
| 20260505150239 | 56 | 32 | 1.7 | 5.2 | 0.00 | 0.00 | 0.00 | 61 | 1013.4 |
| 20260505140238 | 58 | 283 | 2.6 | 8.7 | 0.00 | 0.00 | 0.00 | 57 | 1013.4 |
| 20260505130234 | 57 | 320 | 1.7 | 7.0 | 0.00 | 0.00 | 0.00 | 56 | 1013.4 |
| 20260505124735 | 56 | 327 | 1.7 | 5.2 | 0.00 | 0.00 | 0.00 | 57 | 1013.4 |
| 20260505124236 | 56 | 305 | 2.6 | 5.2 | 0.00 | 0.00 | 0.00 | 57 | 1013.5 |
| 20260505123735 | 57 | 328 | 2.6 | 6.1 | 0.00 | 0.00 | 0.00 | 57 | 1013.5 |
| 20260505123235 | 57 | 2 | 1.7 | 6.1 | 0.00 | 0.00 | 0.00 | 56 | 1013.5 |
| 20260505122734 | 57 | 338 | 1.7 | 5.2 | 0.00 | 0.00 | 0.00 | 57 | 1013.5 |
| 20260505122233 | 56 | 0 | 1.7 | 5.2 | 0.00 | 0.00 | 0.00 | 57 | 1013.5 |
| 20260505121734 | 56 | 1 | 1.7 | 5.2 | 0.00 | 0.00 | 0.00 | 59 | 1013.5 |
| 20260505121233 | 56 | 0 | 1.7 | 5.2 | 0.00 | 0.00 | 0.00 | 58 | 1013.5 |
| 20260505120730 | 56 | 312 | 1.7 | 5.2 | 0.00 | 0.00 | 0.00 | 59 | 1013.5 |
| 20260505120229 | 56 | 349 | 1.7 | 4.3 | 0.00 | 0.00 | 0.00 | 59 | 1013.5 |
| 20260505115728 | 56 | 357 | 1.7 | 4.3 | 0.00 | 0.00 | 0.00 | 59 | 1013.5 |
| 20260505115227 | 56 | 28 | 1.7 | 4.3 | 0.00 | 0.00 | 0.00 | 59 | 1013.5 |
| 20260505114728 | 56 | 38 | 1.7 | 4.3 | 0.00 | 0.00 | 0.00 | 59 | 1013.5 |
| 20260505114228 | 56 | 311 | 0.9 | 4.3 | 0.00 | 0.00 | 0.00 | 59 | 1013.6 |
| 20260505113728 | 56 | 295 | 0.9 | 5.2 | 0.00 | 0.00 | 0.00 | 59 | 1013.6 |
| 20260505113228 | 56 | 293 | 0.9 | 5.2 | 0.00 | 0.00 | 0.00 | 60 | 1013.8 |
| 20260505112729 | 56 | 321 | 1.7 | 5.2 | 0.00 | 0.00 | 0.00 | 60 | 1013.8 |
| 20260505112225 | 56 | 9 | 1.7 | 5.2 | 0.00 | 0.00 | 0.00 | 61 | 1013.8 |
| 20260505111724 | 56 | 5 | 1.7 | 5.2 | 0.00 | 0.00 | 0.00 | 61 | 1013.8 |
| 20260505111225 | 57 | 349 | 1.7 | 6.1 | 0.00 | 0.00 | 0.00 | 60 | 1013.8 |
| 20260505110723 | 56 | 92 | 0.9 | 6.1 | 0.00 | 0.00 | 0.00 | 60 | 1013.8 |
| 20260505110223 | 56 | 123 | 1.7 | 5.2 | 0.00 | 0.00 | 0.00 | 58 | 1013.8 |
| 20260505101719 | 55 | 353 | 2.6 | 6.1 | 0.00 | 0.00 | 0.00 | 62 | 1014.0 |
| 20260505100219 | 54 | 0 | 2.6 | 8.7 | 0.00 | 0.00 | 0.00 | 63 | 1014.1 |
| 20260505095718 | 54 | 340 | 2.6 | 8.7 | 0.00 | 0.00 | 0.00 | 65 | 1014.1 |
| 20260505095218 | 54 | 4 | 3.5 | 7.8 | 0.00 | 0.00 | 0.00 | 65 | 1014.1 |
| 20260505094219 | 54 | 241 | 2.6 | 7.8 | 0.00 | 0.00 | 0.00 | 65 | 1014.1 |
| 20260505093719 | 54 | 322 | 2.6 | 7.0 | 0.00 | 0.00 | 0.00 | 65 | 1014.1 |
| 20260505093218 | 54 | 353 | 2.6 | 6.1 | 0.00 | 0.00 | 0.00 | 66 | 1014.1 |
| 20260505092715 | 54 | 36 | 2.6 | 6.1 | 0.00 | 0.00 | 0.00 | 68 | 1014.0 |
| 20260505092438 | 54 | 26 | 2.6 | 8.7 | 0.00 | 0.00 | 0.00 | 68 | 1014.0 |
| 20260505091438 | 53 | 344 | 2.6 | 7.8 | 0.00 | 0.00 | 0.00 | 69 | 1014.0 |
| 20260505090212 | 53 | 0 | 2.6 | 8.7 | 0.00 | 0.00 | 0.00 | 72 | 1013.9 |
| 20260505085441 | 52 | 305 | 2.6 | 7.0 | 0.00 | 0.00 | 0.00 | 72 | 1013.9 |
| 20260505084714 | 52 | 331 | 3.5 | 7.0 | 0.00 | 0.00 | 0.00 | 73 | 1014.0 |
| 20260505083714 | 52 | 333 | 2.6 | 6.1 | 0.00 | 0.00 | 0.00 | 73 | 1013.9 |
| 20260505083213 | 52 | 326 | 1.7 | 6.1 | 0.00 | 0.00 | 0.00 | 74 | 1013.9 |
| 20260505082713 | 52 | 0 | 1.7 | 6.1 | 0.00 | 0.00 | 0.00 | 75 | 1014.0 |
| 20260505082214 | 52 | 0 | 1.7 | 6.1 | 0.00 | 0.00 | 0.00 | 76 | 1014.0 |
| 20260505081715 | 51 | 358 | 2.6 | 6.1 | 0.00 | 0.00 | 0.00 | 76 | 1014.0 |
| 20260505081210 | 51 | 9 | 1.7 | 6.1 | 0.00 | 0.00 | 0.00 | 76 | 1014.0 |
| 20260505080709 | 51 | 350 | 1.7 | 5.2 | 0.00 | 0.00 | 0.00 | 76 | 1014.0 |
| 20260505080209 | 51 | 6 | 1.7 | 5.2 | 0.00 | 0.00 | 0.00 | 77 | 1014.0 |
| 20260505075709 | 51 | 18 | 1.7 | 4.3 | 0.00 | 0.00 | 0.00 | 77 | 1013.9 |
| 20260505075209 | 51 | 8 | 1.7 | 4.3 | 0.00 | 0.00 | 0.00 | 77 | 1013.8 |
| 20260505074710 | 51 | 340 | 2.6 | 6.1 | 0.00 | 0.00 | 0.00 | 77 | 1013.8 |
| 20260505074209 | 51 | 343 | 1.7 | 6.1 | 0.00 | 0.00 | 0.00 | 77 | 1013.8 |
| 20260505073708 | 51 | 308 | 1.7 | 4.3 | 0.00 | 0.00 | 0.00 | 77 | 1013.6 |
| 20260505073208 | 51 | 24 | 1.7 | 4.3 | 0.00 | 0.00 | 0.00 | 77 | 1013.6 |
| 20260505072704 | 51 | 316 | 1.7 | 5.2 | 0.00 | 0.00 | 0.00 | 78 | 1013.6 |
| 20260505072203 | 51 | 1 | 1.7 | 5.2 | 0.00 | 0.00 | 0.00 | 78 | 1013.5 |
| 20260505071703 | 51 | 7 | 1.7 | 4.3 | 0.00 | 0.00 | 0.00 | 79 | 1013.5 |
| 20260505071203 | 51 | 334 | 1.7 | 4.3 | 0.00 | 0.00 | 0.00 | 80 | 1013.5 |
| 20260505070703 | 50 | 0 | 0.9 | 4.3 | 0.00 | 0.00 | 0.00 | 82 | 1013.6 |
| 20260505070203 | 50 | 13 | 0.9 | 4.3 | 0.00 | 0.00 | 0.00 | 84 | 1013.6 |
| 20260505065703 | 49 | 7 | 1.7 | 4.3 | 0.00 | 0.00 | 0.00 | 86 | 1013.8 |
| 20260505065203 | 48 | 305 | 1.7 | 4.3 | 0.00 | 0.00 | 0.00 | 88 | 1013.9 |
| 20260505064703 | 48 | 2 | 1.7 | 4.3 | 0.00 | 0.00 | 0.00 | 91 | 1013.9 |
| 20260505064203 | 47 | 324 | 1.7 | 6.1 | 0.00 | 0.00 | 0.00 | 92 | 1013.9 |
| 20260505063704 | 47 | 35 | 1.7 | 6.1 | 0.00 | 0.00 | 0.00 | 94 | 1013.8 |
| 20260505063203 | 46 | 61 | 0.9 | 2.6 | 0.00 | 0.00 | 0.00 | 95 | 1013.8 |
| 20260505062704 | 45 | 0 | 0.0 | 1.7 | 0.00 | 0.00 | 0.00 | 95 | 1013.9 |
| 20260505062203 | 44 | 0 | 0.0 | 0.9 | 0.00 | 0.00 | 0.00 | 96 | 1013.9 |
| 20260505061704 | 43 | 0 | 0.0 | 0.0 | 0.00 | 0.00 | 0.00 | 96 | 1013.9 |
| 20260505061203 | 43 | 0 | 0.0 | 1.7 | 0.00 | 0.00 | 0.00 | 96 | 1013.9 |
| 20260505060652 | 43 | 0 | 0.9 | 1.7 | 0.00 | 0.00 | 0.00 | 96 | 1013.9 |
| 20260505060151 | 42 | 335 | 0.9 | 2.6 | 0.00 | 0.00 | 0.00 | 96 | 1013.9 |
| 20260505055652 | 42 | 311 | 0.0 | 2.6 | 0.00 | 0.00 | 0.00 | 96 | 1013.9 |
| 20260505055152 | 42 | 0 | 0.0 | 1.7 | 0.00 | 0.00 | 0.00 | 96 | 1013.9 |
| 20260505054651 | 42 | 0 | 0.0 | 1.7 | 0.00 | 0.00 | 0.00 | 96 | 1013.9 |
| 20260505054152 | 42 | 308 | 0.0 | 1.7 | 0.00 | 0.00 | 0.00 | 96 | 1013.9 |
| 20260505053652 | 42 | 0 | 0.0 | 1.7 | 0.00 | 0.00 | 0.00 | 96 | 1013.9 |
| 20260505053135 | 41 | 310 | 0.0 | 1.7 | 0.00 | 0.00 | 0.00 | 96 | 1014.0 |
| 20260505052635 | 41 | 0 | 0.0 | 0.0 | 0.00 | 0.00 | 0.00 | 96 | 1014.0 |
| 20260505052134 | 41 | 0 | 0.0 | 0.0 | 0.00 | 0.00 | 0.00 | 96 | 1013.9 |
| 20260505051639 | 41 | 0 | 0.0 | 0.0 | 0.00 | 0.00 | 0.00 | 96 | 1013.9 |
| 20260505051135 | 40 | 0 | 0.0 | 0.0 | 0.00 | 0.00 | 0.00 | 96 | 1013.9 |
| 20260505050839 | 40 | 0 | 0.0 | 0.0 | 0.00 | 0.00 | 0.00 | 96 | 1013.8 |
| 20260505050325 | 40 | 0 | 0.0 | 0.0 | 0.00 | 0.00 | 0.00 | 96 | 1013.8 |